DELTA 1 DEB

Satellite information

Favourite Embed

Satellite Type and Status

DEBRISIN ORBIT

Key statistics

Satellite DELTA 1 DEB at a glance.

Uptime

17232

Days in orbit

Revolutions

≈ 14.1

Per day

Orbit

SSO

Sun Synchronous Orbit

Inclination

99.1

Latest

Satellite identification and parameters

Extended collection of information and parameters for DELTA 1 DEB.

Object identification

Identified? True

Debris? True

Object name: DELTA 1 DEB

International designator: 1978-026KK

Object number (NORAD): 37672

Object ID (CCSDS): 37672

Country: UNITED STATES OF AMERICA (US)

Current information (Y/N): Y

RCS size: SMALL

Orbital parameters

Period: 101.917 minutes

Inclination: 99.0685 deg

SMA: 7227.531 km

Apoapsis: 866.088 km

Periapsis: 832.704 km

RAAN: 148.5508 deg

Eccentricy: 0.0023095

Argument of periapsis: 11.9298 deg

Mean anomaly: 348.2416 deg

Mean motion: 14.12920773 rev/day

Mean motion (dot): 0.00000499 rev/day2

B* drag term: 0.00029174 1/REarth

Two-line elements (TLE)

Creation date: May 7, 2025, 3:14 a.m.

Reference frame: TEME

Reference center: EARTH

Epoch: May 6, 2025, 8:07 a.m. UTC

TLE line 0: 0 DELTA 1 DEB

TLE line 1: 1 37672U 78026KK 25126.33849462 .00000499 00000-0 29174-3 0 9991

TLE line 2: 2 37672 99.0685 148.5508 0023095 11.9298 348.2416 14.12920773180030

Live tracking on map

Real-time ground track for satellite DELTA 1 DEB.

In-orbit conjunctions

A list of the most updated potential collisions computed for object DELTA 1 DEB.

Target Orbit TCA Probability of collision Miss distance Type
SL-16 R/B LEO 2025-02-15 20:35:32 0.0001747051 307.0 (m) ROCKET BODY
CZ-6A DEB SSO 2024-11-11 06:11:44 0.0001015658 659.0 (m) DEBRIS

Associated space launch

Earth observation satellite

DELTA 1 DEB was lifted into orbit during the mission ‘Delta 2910 | Landsat 3’, on board a Delta 2910 space rocket.

The launch took place on March 5, 1978, 5:54 p.m. from Space Launch Complex 2W.

For more information about the launch, click the button.

Launch to space Delta 2910 | Landsat 3
Delta 2910 | Landsat 3

Agency: N/A

Status: Launch Successful

Launch date: March 5, 1978, 5:54 p.m. UTC

Rocket: Delta 2910

Launch pad: Space Launch Complex 2W

Location: Vandenberg SFB, CA, USA

...

Latest news about this satellite

There are no fresh news available about this satellite. Check back as we update our databases every day.


Newsletter sign-up

Weekly statistics, charts and insights to help you stay on top of the space industry.